Regional Weather Roundup
Issued by NWS

Home | Current Version | Previous Version | Text Only | Print | Product List | Glossary Off
Versions: 1 2 3 4 5 6 7 8 9 10 11 12 13 14 15 16 17 18 19 20 21 22 23 24 25 26 27 28 29 30 31 32 33 34 35 36 37 38 39 40 41 42 43 44 45 46 47 48 49 50

000
ASUS43 KBIS 291402
RWRND

NORTH DAKOTA REGIONAL WEATHER ROUNDUP
NATIONAL WEATHER SERVICE BISMARCK ND
900 AM CDT THU SEP 29 2016

NOTE: "FAIR" INDICATES FEW OR NO CLOUDS BELOW 12,000 FEET WITH NO
SIGNIFICANT WEATHER AND/OR OBSTRUCTIONS TO VISIBILITY.


NDZ001>003-009>011-017-291500-
NORTHWEST NORTH DAKOTA

CITY           SKY/WX    TMP DP  RH WIND       PRES   REMARKS
WILLISTON      SUNNY     54  43  66 SE6       30.26R
MINOT          SUNNY     48  45  89 SE8       30.34F
MINOT AFB      SUNNY     47  44  90 S13       30.33F
$$

NDZ018>021-031>035-040>046-291500-
SOUTHWEST NORTH DAKOTA

CITY           SKY/WX    TMP DP  RH WIND       PRES   REMARKS
BISMARCK       SUNNY     44  42  93 E7        30.40S
DICKINSON      SUNNY     46  42  86 SE13      30.29R
GARRISON         N/A     48  47  96 SE9       30.35F
HETTINGER ARPT SUNNY     44  40  85 E6        30.33S
$$

NDZ004>008-012>016-024-026-027-054-291500-
NORTHEAST NORTH DAKOTA

CITY           SKY/WX    TMP DP  RH WIND       PRES   REMARKS
GRAND FORKS    CLOUDY    51  47  86 SE8       30.47R
GRND FRKS AFB  PTSUNNY   48  48  99 S6        30.47S
DEVILS LAKE    SUNNY     50  47  89 SE9       30.44S
$$

NDZ022-023-025-028>030-036>039-047>053-291500-
SOUTHEAST NORTH DAKOTA

CITY           SKY/WX    TMP DP  RH WIND       PRES   REMARKS
FARGO          CLOUDY    55  47  74 SE5       30.49R
JAMESTOWN      SUNNY     45  45 100 SE8       30.44S
$$





USA.gov is the U.S. government's official web portal to all federal, state and local government web resources and services.